Location: Moscow
(55.7500°N, 37.5830°E)
Time: 18:28:47
(UTC+03:00)

ISS - Pass Details

Date: 15 March 2026
Orbit: 416 x 425 km, 51.6° (Epoch: 19 April)

Event Time Altitude Azimuth Distance (km) Brightness Sun altitude
Rises 21:47:13 0° 260° (W) 2,385 0.6 -26.1°
Reaches altitude 10° 21:49:23 10° 253° (WSW) 1,518 -0.6 -26.3°
Enters shadow 21:49:39 12° 251° (WSW) 1,414 -0.8 -26.4°
